Location: Godiavel Galaoual
(15.2485°N, 12.6604°W)
Time: 01:38:44
(UTC+00:00)

Explorer 7 - Pass Details

Date: 23 June 2021
Orbit: 484 x 676 km, 50.3° (Epoch: 29 July)

Event Time Altitude Azimuth Distance (km) Brightness Sun altitude
Rises 03:32:02 0° 341° (NNW) 2,856 10.8 -35.1°
Reaches altitude 10° 03:34:59 10° 360° (N) 1,910 10.0 -34.6°
Maximum altitude 03:38:02 18° 45° (NE) 1,402 9.5 -34.1°
Drops below altitude 10° 03:40:58 10° 90° (E) 1,822 10.0 -33.6°
Sets 03:43:41 0° 109° (ESE) 2,674 10.7 -33.1°
